User: anonymous   Login
Location: North Smoke Tower Site
(30.5430°N, 82.3390°W)
Time: 22:23:37
(UTC-04:00)
Language:

Cosmos 1980 Rocket - Orbit

View from above orbital plane
View from above orbital plane
View from above satellite
View from above satellite

Ground track
Ground track

The orbit data is extracted from the following two-line orbital elements,

1 19650U 88102B   17146.31787972 -.00000146 +00000-0 -49749-4 0  9993
2 19650 071.0005 061.0819 0015789 222.4867 137.5035 14.15756559472625
Epoch (UTC): 26 May 2017 07:37:44
Eccentricity: 0.0015789
inclination: 71.0005°
perigee height: 828 km
apogee height: 851 km
right ascension of ascending node: 61.0819°
argument of perigee: 222.4867°
revolutions per day: 14.15756559
mean anomaly at epoch: 137.5035°
orbit number at epoch: 47262

The dashed part of the orbit path shows where the satellite is in the earth's shadow,  

DLR